sat.trackr.live / text

‹ back to catalog

GAOFEN-14 02

NORAD 66175 · 2025-242A

PAYLOAD ACTIVE UNKNOWN

§ Identity

Operator
Country
PRC
Launch date
2025-10-26
Launch site
XICLF
Launch vehicle
Mass (kg)
RCS (m²)

External: N2YO · Heavens-Above · Gunter

§ Orbital elements

Epoch: 2026-09-20T22:43:05.079648Z

Period
94.52 min
Inclination
97.4044°
Eccentricity
0.0010511
Mean motion
15.23447489 rev/d
Perigee alt
488.2 km
Apogee alt
502.7 km
Semi-major
6,873.6 km
B*
1.3433e-4
RAAN
338.6088°
Arg perigee
0.4057°
Mean anomaly
359.7186°
Rev number
5,029

§ Raw data

GAOFEN-14 021 66175U 25242A   26263.94658657  .00003133  00000+0  13433-3 0  99952 66175  97.4044 338.6088 0010511   0.4057 359.7186 15.23447489 50297

JSON: /api/v1/satellites/66175 · /tle

For live sub-satellite position, see the globe view (requires WebGL).

§ Visibility from observer

Set your observer location to see the next 7 days of passes ≥ 10°. The values pass through the URL so the page stays shareable.

No JS? Fill the form by hand. The geolocation button needs JavaScript.